GEFSMA_con_probscp_264.txt.gz
Probability
0 0 0 0 0 0 0 0 0 1 1 1 1 0 0 0 0 0 0 0 0 0 0 0 0 1 0 1 2 3 3 3 1 0 0 0 0 0 0 0 0 0 0
0 0 0 0 0 0 0 0 0 0 1 1 2 1 0 0 0 0 0 0 0 0 0 0 0 1 1 1 3 3 3 3 2 0 0 0 0 0 0 0 0 0 0
0 0 0 0 0 0 0 0 1 1 1 2 3 1 0 0 0 0 0 0 0 0 0 0 0 1 2 3 3 3 3 3 1 0 0 0 0 0 0 0 0 0 0
1 1 0 0 1 1 1 1 2 2 2 2 1 0 0 0 0 0 0 0 0 0 0 0 0 1 2 2 3 3 3 2 1 0 0 0 0 0 0 0 0 0 0
4 3 1 1 2 2 2 2 2 2 2 1 0 0 0 0 0 0 0 0 0 0 0 0 0 0 1 1 2 3 4 2 1 0 0 0 0 0 0 0 0 0 0
6 5 3 2 3 3 3 3 1 1 1 0 0 0 0 0 0 0 0 0 0 0 0 0 0 0 0 0 1 3 4 2 0 0 0 0 0 0 0 0 0 0 0
6 6 5 3 3 3 3 2 1 0 0 0 0 0 0 0 0 0 0 0 0 0 0 0 0 0 0 1 1 2 2 2 1 1 0 0 0 0 0 0 0 0 0
6 6 5 4 3 3 3 2 1 0 0 0 0 0 0 0 0 0 0 0 0 0 0 0 0 0 0 1 1 0 1 1 2 2 1 1 1 1 0 0 0 0 0
5 4 4 3 3 3 3 2 1 0 0 0 0 0 0 0 0 0 0 0 0 0 0 0 0 0 0 0 0 0 0 0 1 2 2 3 3 2 1 0 0 0 0
4 3 3 3 3 3 2 1 0 0 0 0 0 0 0 0 0 0 0 0 0 0 0 0 0 0 0 0 0 0 0 0 0 1 2 3 4 4 2 1 0 0 0
3 3 2 2 2 2 1 0 0 0 0 0 0 0 0 0 0 0 0 0 0 0 0 0 0 0 0 0 0 0 0 0 0 0 1 2 4 4 3 1 1 1 0
2 1 1 1 1 1 0 0 0 0 0 0 0 0 0 0 0 0 0 0 0 0 0 0 0 0 0 0 0 0 0 0 0 0 0 1 2 2 1 1 2 2 1
1 0 0 0 0 0 0 0 0 0 0 0 0 0 0 0 0 0 0 0 0 0 0 0 0 0 1 1 0 0 0 0 0 0 0 0 0 0 0 1 1 2 2
0 0 0 0 0 0 0 0 0 0 0 0 0 0 0 0 0 0 1 1 1 0 0 0 1 2 2 2 1 0 0 0 0 0 0 0 0 0 0 0 0 1 1
0 0 0 0 0 0 0 0 0 0 0 0 0 0 0 0 0 1 3 3 3 2 1 1 2 3 3 2 1 0 0 0 0 0 0 0 0 0 0 0 0 0 0
0 0 0 0 0 0 0 0 0 0 0 0 0 0 0 0 1 3 5 6 5 5 3 2 2 2 3 2 0 0 0 0 0 0 0 0 0 0 0 0 0 0 0
1 0 0 0 0 0 0 0 0 0 0 0 0 1 1 1 2 5 6 7 7 7 6 3 2 3 3 2 1 0 0 0 0 0 0 0 0 0 0 0 0 0 0
3 2 1 1 1 1 1 2 1 1 1 1 1 2 3 3 4 6 7 8 8 9 8 5 3 3 3 2 1 0 0 0 0 0 0 0 0 0 0 0 0 0 0
5 5 4 3 3 3 3 3 3 3 3 3 3 4 5 6 6 8 9 9 9 10 9 7 5 4 3 1 0 0 0 0 0 0 0 0 0 0 0 0 0 0 0
7 8 8 7 6 6 5 5 5 6 5 5 5 6 6 7 8 9 10 10 10 10 9 9 7 5 3 1 1 0 0 0 0 0 0 0 0 0 0 0 0 0 0
9 9 9 9 8 7 6 6 8 8 8 7 7 7 7 7 7 8 8 8 8 8 8 9 8 6 4 2 1 1 1 0 0 0 0 0 0 0 0 0 0 0 0
10 11 11 10 9 9 7 6 7 8 9 9 9 9 8 8 7 6 5 5 5 4 5 7 8 6 4 2 1 0 0 0 0 0 0 0 1 1 1 0 0 0 0
11 11 11 11 11 10 6 3 4 7 9 9 9 10 10 9 8 6 4 4 3 3 3 5 7 7 5 2 1 0 0 0 0 0 0 0 1 1 1 0 0 0 0
12 11 11 11 11 9 4 1 2 6 8 8 8 9 9 9 7 5 4 5 5 4 3 3 4 4 3 2 1 0 0 0 0 0 0 0 0 0 0 0 0 0 0
13 13 12 11 10 7 3 0 2 7 9 8 7 7 6 5 4 2 2 4 6 6 2 0 1 1 1 1 0 0 0 1 1 1 0 0 0 0 0 0 0 0 0
15 14 13 12 9 6 4 1 2 7 9 9 8 6 4 2 1 0 1 3 6 5 2 0 0 0 0 0 0 0 1 2 2 2 1 0 0 0 0 0 0 0 0

GEFSMA_con_probscp_270.txt.gz
Probability
6 7 9 9 7 5 6 8 10 9 9 8 6 2 0 0 0 1 2 2 1 2 3 3 3 3 3 3 2 1 0 0 0 0 0 0 0 0 0 0 0 0 0
5 7 8 8 7 7 8 9 9 9 7 7 5 3 1 1 0 0 1 1 1 2 3 3 3 3 3 4 4 3 1 0 0 0 0 0 0 0 0 0 0 0 0
6 6 7 7 8 8 9 9 9 7 6 5 6 5 4 3 1 1 1 0 0 1 3 4 4 4 4 4 5 4 3 2 1 1 1 0 0 0 0 0 0 0 0
6 6 6 7 8 9 10 9 8 6 5 5 6 6 6 5 4 3 2 1 1 2 4 6 5 5 5 5 4 5 6 5 4 4 2 1 0 0 0 0 0 0 0
7 7 6 7 8 9 10 9 7 5 4 4 4 5 6 7 5 4 3 3 3 4 5 6 5 5 4 4 4 5 6 6 5 4 3 1 0 0 0 0 0 0 0
7 7 6 7 7 8 9 8 6 4 3 3 3 4 5 6 5 4 3 3 3 4 4 4 5 5 4 4 4 5 6 6 5 4 3 2 1 0 0 0 0 0 0
7 7 6 6 6 6 7 7 6 4 3 3 3 3 4 4 3 3 3 2 3 3 3 3 4 5 6 6 5 5 6 6 5 4 3 3 2 1 1 0 0 0 0
7 6 6 6 5 4 4 5 5 3 2 2 3 3 3 2 2 1 1 1 1 3 3 2 2 4 6 7 5 4 4 5 6 4 3 3 3 3 2 1 0 0 1
5 5 4 4 3 2 3 3 3 2 1 1 1 2 1 1 1 0 0 0 1 2 2 1 1 2 4 5 5 4 3 4 5 5 4 3 4 4 4 3 1 1 2
5 4 3 2 1 1 1 2 3 1 0 0 0 1 1 2 2 1 0 0 0 1 1 1 0 1 2 4 5 4 3 3 4 4 4 3 3 3 3 3 2 2 2
5 4 2 1 0 0 1 2 4 3 1 1 0 1 3 5 4 3 1 0 0 0 1 1 0 0 2 4 6 4 2 2 2 2 2 3 3 2 2 1 1 1 1
5 4 1 0 1 1 1 3 4 3 3 2 2 3 4 6 5 3 1 0 0 1 2 3 2 1 3 5 6 4 2 1 1 0 1 2 2 2 1 1 0 0 0
5 4 1 0 1 1 1 2 3 3 3 4 4 5 5 5 4 3 1 0 0 1 2 3 3 2 4 6 6 4 2 1 0 0 0 0 0 1 2 2 1 0 0
3 2 1 0 1 1 1 2 3 3 4 5 5 5 6 5 4 4 3 2 1 1 1 3 4 4 5 7 6 4 3 1 0 0 0 0 0 0 1 1 0 0 0
3 3 2 1 1 1 1 1 1 3 5 7 6 6 6 6 5 5 6 5 5 3 2 4 6 7 9 8 5 5 5 3 1 0 0 0 0 0 0 0 0 0 0
7 6 5 4 3 3 2 2 1 3 6 8 8 7 6 7 7 6 7 8 9 9 6 5 8 11 13 11 7 7 7 5 2 1 0 0 0 0 0 0 0 0 0
9 9 7 6 5 4 4 4 3 5 7 8 7 7 7 7 8 8 8 9 11 12 11 10 11 14 16 16 13 11 8 7 4 2 0 0 0 0 0 0 0 0 0
11 11 11 10 9 8 6 6 6 6 8 9 8 8 8 10 10 11 11 12 13 15 15 15 14 16 19 19 17 13 8 5 4 2 0 0 0 0 0 0 0 0 0
13 14 14 14 13 12 11 9 9 10 11 12 11 11 12 13 15 16 17 18 17 17 18 18 17 18 19 19 17 12 8 5 3 1 0 0 0 0 0 0 0 0 0
15 16 17 17 16 15 14 13 14 15 16 16 15 16 16 17 19 21 21 21 20 18 19 19 18 19 19 18 15 13 11 8 5 3 2 1 1 0 0 0 0 0 0
17 18 19 18 16 15 13 13 14 16 18 19 19 19 19 19 20 19 17 17 18 18 19 19 18 19 20 19 16 15 13 11 8 6 5 3 2 1 1 1 1 0 0
19 19 20 18 16 13 11 9 10 14 19 21 22 20 19 18 18 14 11 10 12 14 16 17 18 19 20 20 18 16 13 11 10 8 7 6 4 3 2 2 1 0 0
20 20 19 18 17 14 9 6 6 11 17 20 21 21 19 18 17 16 12 10 11 11 11 15 18 19 19 19 19 16 13 11 11 10 10 8 6 4 3 2 1 0 0
23 22 21 21 20 16 10 4 4 8 13 15 18 20 20 19 19 18 17 17 18 15 12 13 14 14 14 15 15 15 14 12 11 12 11 9 7 5 4 3 1 0 0
28 26 25 24 24 19 12 5 4 8 12 13 16 18 18 18 17 16 17 20 20 18 14 11 11 11 10 9 10 12 13 13 12 12 11 10 9 8 6 4 3 1 0
30 29 27 26 25 21 14 6 5 12 15 15 17 17 14 14 14 13 14 16 16 14 13 13 12 10 9 7 7 10 13 14 13 12 11 10 11 10 7 5 3 2 1

GEFSMA_con_probscp_276.txt.gz
Probability
8 9 10 10 10 10 10 10 9 7 6 5 4 4 4 4 3 3 2 4 7 8 7 4 2 2 3 3 3 3 3 3 2 1 0 0 0 0 0 0 0 0 0
9 10 10 10 10 9 9 8 8 6 6 5 4 5 5 5 5 5 4 5 6 8 8 5 3 2 3 3 2 2 3 3 2 1 1 1 0 0 0 0 0 0 0
11 11 10 9 9 9 8 7 6 6 6 6 6 5 5 5 6 8 7 6 5 7 8 6 4 3 2 2 2 2 3 4 4 2 2 2 1 0 0 0 0 0 0
11 11 9 9 8 8 6 5 5 6 6 7 8 7 7 7 8 10 9 7 6 7 7 7 6 4 2 2 3 3 4 5 5 3 3 2 1 0 0 0 0 0 0
11 11 11 11 10 7 6 5 5 6 7 7 7 7 9 11 12 11 10 9 10 11 9 8 6 4 3 4 5 5 6 6 5 4 4 2 1 0 0 0 0 0 0
11 12 12 12 10 8 7 6 6 7 9 7 4 4 8 11 12 12 11 11 13 15 13 11 9 7 6 5 6 7 7 7 7 6 5 3 1 0 0 0 0 0 0
11 12 12 12 10 9 8 7 6 6 6 5 3 3 5 8 9 10 11 11 13 15 16 16 16 14 11 7 6 6 7 7 7 7 7 6 2 0 0 0 0 0 0
11 12 13 12 9 8 7 7 6 4 2 2 3 3 4 5 5 6 10 11 12 14 16 19 22 22 18 13 8 6 6 7 8 9 10 8 4 1 1 1 1 1 0
12 13 14 12 8 7 6 5 5 3 1 1 2 3 4 4 4 5 8 11 14 16 15 16 21 25 25 21 14 9 7 6 8 10 11 9 6 4 3 2 2 2 1
13 13 13 12 8 6 6 5 4 3 3 3 3 4 4 5 5 5 5 9 14 17 15 14 17 23 27 26 21 15 9 6 6 7 8 8 7 6 4 3 3 2 2
14 13 13 13 10 8 6 5 4 3 3 3 4 4 4 4 5 5 5 8 11 15 17 16 17 22 26 26 23 18 12 6 4 4 5 6 8 8 6 4 3 3 3
15 14 13 12 11 9 5 4 4 4 4 4 4 4 4 3 4 5 6 6 8 11 15 18 21 24 25 24 21 17 12 7 4 3 3 4 6 7 6 5 4 4 4
15 15 14 12 12 9 6 6 7 6 6 6 6 5 4 3 4 4 5 4 5 7 10 14 19 24 25 24 21 15 10 7 4 3 3 3 4 4 3 3 4 4 4
16 17 17 16 15 11 9 10 11 10 10 11 9 8 7 6 4 4 4 4 4 4 6 9 14 18 22 23 20 15 11 8 4 2 2 2 2 2 1 1 1 2 3
19 20 21 21 19 15 13 14 14 14 14 15 13 12 12 9 7 7 7 7 7 5 6 9 11 13 17 19 17 15 15 12 6 2 1 1 1 1 0 0 0 0 1
25 25 25 24 22 18 18 18 18 17 17 15 15 15 14 12 11 11 11 12 12 12 11 12 12 11 13 15 15 16 17 15 10 5 2 0 0 0 0 0 0 0 0
32 29 27 25 23 21 23 23 21 19 18 17 15 16 16 15 15 16 14 15 17 18 16 15 13 12 13 15 17 18 19 18 14 8 2 0 0 0 0 0 0 0 0
35 33 29 27 24 23 25 25 23 21 21 20 18 17 18 18 19 19 17 16 19 20 18 17 16 15 16 18 20 22 21 20 17 10 3 0 0 0 0 0 0 0 0
38 35 32 30 26 25 26 27 27 26 24 23 21 20 21 22 22 23 21 21 23 23 21 20 20 20 21 22 23 24 23 20 16 10 4 1 0 0 0 0 0 0 0
41 38 35 33 31 29 29 30 30 29 27 26 26 26 25 24 24 24 24 27 28 27 25 24 23 24 25 26 26 24 22 19 16 11 6 3 1 1 1 0 0 0 0
41 40 37 36 35 32 29 28 28 29 30 31 32 31 27 23 23 22 22 25 27 27 26 26 25 25 25 25 25 23 20 18 15 13 10 7 4 4 3 2 1 0 0
41 39 37 36 35 32 25 20 21 26 31 34 35 33 26 21 20 20 18 17 18 19 21 23 23 24 23 22 22 21 20 18 16 15 12 8 7 7 6 4 2 0 0
37 36 35 36 35 31 22 15 15 21 28 33 35 34 29 23 21 22 20 16 14 14 15 18 20 21 21 20 21 20 19 18 17 15 11 9 9 8 7 4 2 0 0
33 33 34 35 35 31 23 14 12 18 25 31 34 34 33 28 24 23 23 22 19 17 15 16 17 18 18 18 17 17 17 16 15 13 12 12 11 10 7 5 3 1 0
32 32 33 35 35 32 23 13 11 20 29 33 34 32 32 29 22 19 22 24 24 22 18 15 14 14 14 12 11 12 14 14 12 11 13 15 14 12 10 7 5 2 1
33 34 35 36 36 32 24 12 12 24 33 36 34 30 27 24 18 15 19 23 25 23 18 14 11 10 10 9 8 9 11 12 11 11 13 16 15 12 10 9 6 4 3

GEFSMA_con_probscp_282.txt.gz
Probability
5 3 2 2 2 2 1 1 1 0 0 0 0 0 1 1 1 1 1 2 3 4 5 6 7 6 4 2 2 3 3 2 1 0 0 0 0 0 0 0 0 0 0
4 3 3 3 3 3 2 2 2 1 0 0 0 0 1 2 2 2 1 1 2 3 5 6 7 6 4 3 2 4 5 4 2 1 1 0 0 0 0 0 0 0 0
3 3 3 3 3 3 3 3 2 1 0 0 0 0 1 1 2 2 1 0 1 3 4 6 7 6 4 3 2 4 6 6 5 4 3 1 1 0 0 0 0 0 0
4 3 3 3 3 3 3 3 2 1 0 0 0 0 0 0 1 2 2 1 1 1 3 5 8 8 6 4 3 4 5 6 7 7 5 3 2 1 1 1 0 0 0
5 4 3 3 3 3 3 3 2 1 0 0 0 0 0 0 1 2 3 3 2 1 2 4 7 9 9 8 6 5 5 6 7 7 6 4 3 3 2 2 1 0 0
6 5 4 3 3 3 3 3 2 1 0 0 0 0 0 0 0 1 2 3 3 3 2 3 4 6 9 11 10 8 7 7 6 5 5 4 3 3 3 3 1 1 0
6 6 5 4 3 2 2 2 1 0 0 0 0 0 0 0 0 0 1 1 3 4 4 4 4 4 6 9 10 9 8 8 5 4 3 3 2 2 2 2 2 2 1
7 6 5 3 2 1 1 1 1 1 1 1 1 0 0 0 0 0 0 0 1 3 4 5 5 4 3 5 6 7 9 8 6 3 3 3 3 3 3 2 2 2 2
7 6 4 2 2 2 1 1 2 2 2 2 2 1 1 1 1 0 0 0 1 2 3 5 7 6 5 4 4 4 6 7 5 3 3 6 7 6 5 4 2 1 1
7 5 3 2 2 2 2 2 3 3 3 3 3 3 2 2 2 1 1 0 1 1 2 4 7 7 6 6 4 3 3 4 3 2 3 7 9 9 8 7 3 1 0
6 4 3 2 1 1 2 2 2 2 3 3 3 3 3 3 3 3 2 2 2 2 1 2 4 5 5 6 5 4 3 3 3 2 2 5 8 10 11 10 6 2 0
6 4 2 1 0 0 1 1 1 2 3 3 3 3 3 3 3 3 3 3 3 2 1 1 1 3 3 4 5 5 5 5 3 2 2 3 5 8 11 12 10 5 2
6 5 2 0 0 0 0 1 2 3 3 4 4 3 3 3 4 4 4 3 3 2 1 0 0 2 3 3 3 4 6 6 4 2 1 2 3 5 7 9 9 6 4
6 5 3 1 1 0 1 2 3 3 4 4 5 4 4 5 6 7 6 5 4 3 1 0 1 2 3 3 2 3 6 6 4 2 1 1 2 2 3 4 4 3 3
6 6 5 3 2 1 2 3 3 3 4 5 6 6 6 7 9 10 10 8 7 4 2 0 1 1 2 3 3 3 5 5 3 1 0 0 1 1 1 1 1 0 1
8 8 7 5 4 5 6 6 6 6 6 7 8 9 9 9 10 11 11 10 8 6 3 1 1 1 1 2 3 4 5 6 3 1 0 0 1 0 0 0 0 0 0
9 9 8 7 7 10 11 11 10 11 11 10 10 10 10 9 10 10 9 9 8 7 4 2 2 1 1 2 3 5 7 8 5 2 0 0 0 0 0 0 0 0 0
9 10 10 10 12 13 13 13 13 13 13 12 11 10 10 10 10 9 9 8 8 7 6 5 4 3 3 3 5 7 9 9 7 5 2 0 0 0 0 0 0 0 0
10 10 11 12 13 13 13 13 13 13 13 13 12 11 11 11 11 10 9 9 8 6 6 6 5 5 5 5 7 8 9 8 7 5 3 1 0 0 0 0 0 0 0
12 12 12 13 13 14 13 14 14 15 15 14 13 12 12 13 12 12 12 11 9 7 6 6 5 4 4 6 8 10 9 8 6 4 3 2 1 0 0 0 0 0 0
13 13 14 14 14 14 12 12 15 17 16 15 14 14 13 13 14 14 14 13 11 9 9 8 7 5 5 6 8 9 9 7 5 4 4 3 1 0 0 0 0 0 0
12 13 14 14 14 14 11 9 12 15 16 16 16 16 15 13 12 12 12 11 10 10 10 9 8 8 7 7 7 7 6 6 5 5 6 5 2 0 0 0 0 0 0
13 13 13 14 15 15 11 7 8 11 13 15 18 19 19 16 13 11 9 7 7 8 8 7 7 7 6 4 4 4 4 4 5 5 6 6 3 1 0 0 0 0 0
15 14 14 15 17 16 11 6 5 8 10 12 16 19 20 19 15 10 7 6 4 5 6 5 5 5 3 2 2 2 2 2 3 4 5 5 4 1 0 0 0 0 0
16 16 16 16 16 14 10 6 5 7 9 10 13 16 17 17 13 6 4 5 4 4 4 3 3 3 1 0 1 1 1 2 3 3 4 4 3 1 0 0 0 0 0
17 17 17 16 15 13 11 7 5 8 10 9 11 13 14 15 11 4 3 4 4 3 3 2 1 1 0 0 0 0 1 3 4 3 3 3 3 2 1 0 0 0 0

GEFSMA_con_probscp_288.txt.gz
Probability
1 1 0 0 0 0 0 0 0 0 0 0 0 0 0 1 2 1 1 1 1 0 1 2 3 3 4 5 5 5 5 5 4 4 2 1 1 2 2 1 0 0 0
1 1 1 1 1 0 0 0 0 0 0 0 0 0 0 1 1 1 0 0 0 1 2 3 3 3 3 4 5 5 5 5 5 4 2 2 2 3 3 2 1 0 0
2 2 2 2 2 1 1 1 0 0 0 0 0 0 0 0 0 0 0 0 0 1 2 3 3 3 3 4 5 5 5 4 4 3 3 4 4 4 3 3 2 1 0
3 3 3 3 3 3 2 2 1 0 0 0 0 0 0 0 0 0 0 0 0 0 2 3 4 3 4 5 5 6 6 4 3 4 5 6 5 4 3 3 3 2 1
4 3 3 3 3 3 3 3 2 1 1 0 0 0 0 0 0 0 0 0 0 0 1 2 3 3 4 5 5 5 5 4 4 5 6 7 7 5 3 2 2 2 2
4 4 3 3 3 3 3 3 3 2 1 0 0 0 0 0 0 0 0 0 1 1 0 1 2 2 3 3 4 4 4 4 5 6 7 7 7 6 4 1 0 1 1
4 3 3 3 3 3 3 3 3 2 1 0 0 0 0 0 0 0 0 1 2 2 1 1 1 2 2 2 2 3 4 4 5 7 8 7 7 6 4 2 1 1 1
4 4 3 3 2 1 1 3 3 2 1 1 0 0 1 1 1 1 1 1 2 2 3 3 3 3 3 2 2 2 4 6 7 7 8 9 9 8 6 4 3 3 2
5 4 3 2 1 0 1 2 3 3 2 2 1 1 2 2 2 2 2 3 3 3 4 5 6 6 5 4 3 3 4 6 7 6 8 10 10 9 9 8 6 5 4
4 4 3 2 1 0 1 2 2 3 3 3 2 2 3 3 3 3 3 3 3 3 4 5 6 6 6 5 4 3 4 4 5 6 8 10 10 9 9 10 9 8 6
4 4 3 3 1 0 1 1 1 1 2 3 3 3 4 4 4 4 4 3 3 3 2 2 3 5 6 6 4 3 3 3 3 4 7 8 9 8 8 8 9 8 7
4 4 4 3 2 1 1 0 0 0 2 4 4 4 5 5 6 6 5 4 4 3 1 0 1 3 5 5 5 4 3 2 1 1 3 5 7 8 8 6 6 6 5
2 3 3 3 2 1 0 0 0 0 2 3 4 4 5 6 7 7 7 6 5 4 1 0 1 2 3 4 4 3 2 1 0 0 0 1 4 7 7 6 5 4 3
0 1 1 2 2 1 0 0 0 0 2 3 4 4 5 7 8 8 8 8 6 4 2 2 2 3 3 4 3 2 1 1 0 0 0 0 1 4 6 6 6 5 4
0 0 1 1 1 1 0 0 1 1 2 4 5 6 7 8 8 9 9 8 6 5 3 3 4 5 5 5 3 3 3 1 0 0 0 0 0 1 3 4 5 5 5
0 0 1 1 1 1 1 1 2 3 4 5 7 8 9 9 9 9 9 9 8 7 6 5 5 6 6 5 4 5 5 3 1 0 0 0 0 0 1 1 3 4 4
0 1 2 3 3 3 3 3 4 6 7 8 9 10 10 10 11 10 10 10 10 9 9 8 7 6 6 5 5 6 5 4 3 2 1 0 0 0 0 0 1 2 1
1 2 4 6 6 6 6 6 7 9 10 10 11 11 11 11 12 12 11 10 10 10 10 9 8 6 5 4 4 5 5 4 3 3 2 1 0 0 0 0 0 0 0
2 3 5 6 7 7 8 8 8 10 10 10 10 10 11 11 12 12 12 10 10 10 10 9 8 6 4 3 3 3 3 3 3 3 2 1 0 0 0 0 0 0 0
4 5 6 6 7 8 9 8 8 9 9 9 9 9 10 11 12 12 12 12 11 10 9 9 9 7 6 5 4 3 3 3 4 3 2 1 1 1 0 0 0 0 0
8 8 8 8 8 9 9 9 8 8 8 8 8 9 10 10 11 10 11 12 10 9 10 10 10 9 9 8 7 5 5 6 5 3 3 3 3 2 1 0 0 0 0
12 11 10 9 9 9 8 7 8 9 9 8 8 10 11 10 10 8 7 7 6 7 9 11 12 11 11 11 10 8 7 6 5 4 3 3 2 1 1 1 1 0 0
13 12 11 10 10 9 7 5 6 9 11 11 11 12 12 11 11 10 8 6 4 3 5 9 11 11 11 11 10 8 6 5 4 3 2 2 1 1 2 2 1 0 0
13 13 12 11 10 9 7 5 5 8 12 13 13 14 14 13 12 13 13 13 9 4 2 4 6 6 6 6 6 5 4 2 2 2 2 2 2 3 3 3 2 1 0
13 13 13 12 11 10 8 6 4 7 11 13 13 14 14 13 10 9 13 15 13 8 3 1 1 1 1 2 2 2 1 1 1 1 2 3 3 3 4 4 3 2 1
13 13 13 13 12 11 9 6 4 6 11 13 13 12 11 10 7 6 9 13 13 10 5 1 0 0 0 0 0 0 1 2 2 1 2 3 3 4 5 5 4 2 1

GEFSMA_con_probscp_294.txt.gz
Probability
4 3 4 4 2 1 1 1 2 1 0 0 0 0 0 0 1 1 1 1 0 1 1 1 1 2 3 3 4 5 5 5 4 4 4 5 4 2 1 2 1 1 0
3 3 5 5 3 2 3 2 2 2 1 0 0 0 0 1 1 1 0 0 0 1 1 1 1 2 3 3 3 5 7 7 6 4 4 4 4 3 2 2 2 2 1
4 4 5 5 4 5 5 4 2 2 2 1 1 0 1 2 2 1 0 0 0 1 2 2 1 2 2 2 2 3 6 8 8 6 4 4 4 3 3 3 3 3 3
6 6 5 5 6 6 6 5 3 3 4 3 2 1 1 2 2 0 0 0 0 1 3 4 4 4 4 2 1 2 4 7 8 7 6 5 4 4 3 3 3 3 3
8 8 8 8 7 8 8 6 6 6 6 5 4 2 2 3 2 1 0 0 0 1 4 7 9 8 7 5 3 3 4 6 7 6 6 6 6 6 4 3 2 2 3
10 11 11 10 9 9 9 9 8 8 7 5 4 3 3 3 3 2 1 0 1 3 6 9 11 11 9 8 6 5 5 5 6 6 6 7 8 7 5 4 3 3 3
11 12 12 12 10 10 10 10 9 9 8 6 4 4 4 4 4 3 1 1 2 4 7 11 13 13 11 10 9 8 7 7 7 7 6 8 9 8 8 7 6 5 5
10 11 11 11 10 10 10 10 9 9 8 7 6 6 5 5 5 3 2 3 4 5 8 11 14 14 14 14 13 12 10 9 8 6 6 9 10 10 9 9 9 7 6
9 9 9 9 9 10 10 10 9 8 8 8 8 8 8 8 6 4 4 5 6 7 8 10 13 16 17 19 18 15 13 11 9 7 7 8 10 10 11 11 10 8 7
7 7 7 8 9 10 10 10 10 9 9 10 10 10 10 11 9 7 6 6 7 8 9 10 11 14 17 19 19 16 14 12 10 9 8 8 9 9 10 11 11 9 8
5 5 6 8 9 10 11 11 11 11 11 11 11 11 11 12 12 11 9 8 8 8 9 9 9 11 13 15 16 15 13 11 10 9 9 8 8 9 11 11 11 11 11
4 4 5 7 8 10 11 12 12 11 11 11 12 12 12 12 13 12 11 10 9 8 8 8 8 8 9 11 12 12 11 10 9 8 6 6 7 9 12 13 13 13 13
4 5 6 6 7 8 10 11 11 10 10 11 13 13 13 12 12 12 11 10 8 8 8 8 8 8 8 9 11 11 10 10 9 6 4 4 5 7 10 12 13 13 13
5 6 7 7 8 7 8 9 9 8 9 10 12 13 13 12 10 9 9 8 7 7 8 8 8 8 9 10 11 11 11 10 8 5 3 2 3 3 5 8 10 10 10
7 6 7 9 9 9 9 9 10 11 11 12 13 14 15 14 12 12 11 10 8 8 9 10 10 9 9 11 12 13 12 10 7 5 2 1 1 1 1 3 4 5 5
10 8 8 10 11 12 12 13 14 15 17 17 17 18 19 18 17 18 17 14 12 14 14 13 13 13 13 12 13 15 14 12 8 5 2 1 0 0 0 1 1 2 2
12 11 11 11 12 13 14 14 14 16 18 19 18 18 18 20 21 21 20 18 18 21 22 19 16 16 16 16 16 17 16 14 10 6 2 1 0 0 0 0 0 1 1
11 11 11 12 11 10 11 11 12 13 15 16 15 15 15 18 20 21 20 21 22 24 25 22 19 18 18 17 18 18 17 15 12 6 2 1 0 0 0 0 0 0 0
10 10 10 9 7 7 9 11 11 12 12 12 12 12 14 17 21 21 21 21 23 23 24 23 20 18 18 18 19 18 16 15 12 7 2 0 0 0 0 0 0 0 0
13 13 12 10 8 8 11 13 14 13 11 11 11 12 14 18 21 22 22 23 24 24 24 23 22 21 20 22 21 18 16 15 12 8 4 1 1 0 0 0 0 0 0
19 21 21 19 16 13 12 14 14 14 14 14 14 14 15 17 18 19 19 20 24 27 28 28 27 26 24 25 23 19 16 14 13 10 7 4 3 2 1 1 0 0 0
26 28 29 27 23 16 12 11 11 13 16 18 18 18 17 16 15 14 12 12 16 21 24 28 30 30 28 27 25 20 17 15 13 12 9 7 6 5 3 1 0 0 0
31 31 30 29 25 19 11 8 7 12 17 21 21 20 19 17 15 14 12 10 10 12 16 22 27 29 29 29 27 23 20 17 15 13 11 9 8 6 3 1 0 0 0
35 34 32 29 26 20 11 6 6 11 18 21 22 22 21 19 15 14 15 15 15 13 12 14 19 22 22 24 25 23 21 19 16 14 12 11 9 6 3 1 0 0 0
38 36 34 31 27 20 11 5 5 12 19 22 22 22 20 18 14 12 16 19 20 19 15 12 12 12 13 13 16 20 21 18 16 15 15 12 10 7 5 3 1 0 0
39 37 35 32 28 21 11 4 6 13 20 22 23 20 17 15 12 12 15 20 21 20 18 13 10 8 7 7 10 17 20 19 17 17 16 13 10 8 7 5 3 1 0

GEFSMA_con_probscp_300.txt.gz
Probability
7 6 7 9 8 8 11 11 9 8 7 6 6 4 2 1 2 5 9 12 15 15 14 12 11 8 7 6 4 4 3 4 4 5 6 6 6 6 5 3 2 3 3
6 7 9 9 7 8 10 10 9 8 7 6 6 5 4 4 4 5 8 10 13 14 15 14 12 10 9 9 6 4 4 5 5 4 4 5 6 5 4 2 1 2 2
7 8 9 9 8 8 10 10 10 10 8 6 6 7 8 9 10 9 10 11 11 12 14 15 14 12 12 12 9 6 6 7 7 6 5 5 5 5 4 2 1 1 1
9 9 10 9 8 9 9 10 11 11 9 7 7 8 10 13 15 14 14 14 13 12 14 15 15 14 13 13 12 9 8 8 9 9 8 7 6 6 5 3 1 1 1
10 9 9 8 9 9 10 10 11 11 11 9 8 8 10 14 15 14 14 15 15 15 17 17 17 16 14 14 14 12 10 10 10 10 10 10 9 7 6 4 3 3 3
9 9 7 7 8 10 10 10 11 12 12 12 10 8 11 14 15 13 13 13 13 15 17 19 19 18 17 17 16 15 13 12 12 12 13 13 12 10 9 7 6 6 6
8 8 5 5 8 10 10 11 12 13 14 14 12 11 12 15 15 16 14 12 12 13 15 18 20 20 19 18 18 18 16 14 14 15 16 15 14 15 14 11 10 8 8
9 8 6 6 8 10 11 11 12 13 15 15 14 12 11 13 14 14 14 14 14 15 15 16 20 21 21 19 19 19 18 16 15 17 19 18 17 18 17 14 12 11 10
9 8 7 7 9 10 11 11 12 14 15 16 14 12 11 12 11 10 11 14 17 19 17 14 17 21 21 20 20 19 18 17 16 18 21 21 20 19 17 15 13 12 11
8 8 9 10 11 10 10 11 12 13 15 15 15 14 13 13 12 11 10 13 17 21 18 13 15 20 22 22 22 20 17 15 15 17 20 21 20 18 17 15 14 14 14
9 9 12 14 13 11 10 11 12 13 15 16 16 16 15 16 16 15 13 13 16 20 20 17 17 21 23 25 25 22 17 14 13 14 15 16 17 17 17 17 16 16 17
14 14 16 18 17 14 12 13 15 17 18 18 19 18 16 17 18 17 15 13 14 18 21 21 21 23 24 24 24 21 16 12 11 11 11 11 12 13 15 16 16 16 17
19 19 21 21 20 18 17 18 19 21 22 22 21 20 19 18 17 16 15 12 12 15 20 22 23 24 23 22 21 18 13 10 9 8 8 8 8 9 11 12 13 12 12
21 22 23 22 22 21 22 22 22 23 24 25 24 23 21 18 17 16 16 14 12 13 17 20 24 25 23 21 19 15 13 10 7 6 5 5 6 7 7 9 9 7 6
20 23 24 23 22 22 23 23 22 22 24 26 26 25 22 19 16 16 18 19 16 14 15 18 23 24 21 18 16 15 14 10 6 4 3 3 3 4 4 5 5 3 2
22 25 26 25 25 23 23 21 19 20 23 25 25 23 20 18 16 16 21 24 23 19 16 17 20 21 19 17 15 16 15 11 7 4 2 1 1 1 1 1 1 1 0
28 30 31 30 28 25 23 20 18 18 21 22 21 20 19 19 18 18 22 25 26 23 19 17 17 20 21 19 18 18 17 14 11 6 2 0 0 0 0 0 0 0 0
34 34 34 34 30 26 23 21 20 20 20 20 18 18 19 20 21 21 20 21 23 23 21 18 18 20 22 22 22 22 20 17 14 8 3 1 0 0 0 0 0 0 0
34 34 33 32 30 26 23 23 24 22 22 21 19 18 19 20 21 20 19 19 20 22 22 21 21 21 23 23 22 22 21 19 16 10 5 2 0 0 0 0 0 0 0
32 32 32 31 29 28 26 26 26 24 23 23 22 21 21 21 20 19 19 20 21 22 22 23 23 23 25 25 23 22 20 19 16 12 8 4 1 0 0 0 0 0 0
32 32 32 31 30 28 25 25 26 24 23 24 24 24 23 22 20 18 17 19 20 20 21 24 25 26 29 28 25 22 18 16 15 14 12 9 5 2 1 1 0 0 0
34 33 33 33 32 27 20 19 22 23 23 24 26 26 25 23 21 18 15 14 13 14 17 22 25 27 30 30 27 23 19 17 15 15 15 13 10 7 5 3 1 0 0
37 35 34 34 33 27 17 13 16 20 23 25 27 27 26 25 23 21 17 13 11 10 12 16 21 25 28 29 28 25 22 21 19 18 17 15 12 11 10 6 2 0 0
38 37 37 37 35 28 18 12 13 18 23 26 27 27 28 26 23 22 21 19 15 12 10 10 14 19 22 24 25 24 23 22 20 18 16 15 13 13 12 8 2 0 0
40 40 41 41 37 30 20 12 13 20 25 26 27 26 26 24 20 18 20 22 21 18 14 11 11 13 14 15 18 20 20 20 17 15 16 17 15 14 12 8 3 0 0
42 42 43 44 39 32 22 12 13 21 26 26 26 25 23 20 16 14 17 21 22 21 18 13 10 10 10 10 13 16 18 18 16 14 16 18 17 15 13 9 4 1 0

GEFSMA_con_probscp_306.txt.gz
Probability
1 1 1 1 1 0 0 1 1 1 0 0 0 0 1 3 5 6 6 8 9 9 8 8 8 9 9 7 5 4 2 1 2 4 3 2 1 2 3 3 3 3 3
2 2 2 2 2 1 1 2 2 2 1 1 1 1 2 5 7 7 6 7 8 9 8 8 9 10 11 9 7 5 4 3 5 6 4 3 1 1 1 1 3 4 3
4 4 3 3 2 1 2 3 3 3 3 2 2 3 3 5 7 7 6 5 6 7 7 7 8 10 11 10 9 8 7 8 9 9 7 4 2 1 1 1 2 4 4
6 5 4 4 3 1 1 3 4 4 4 3 3 3 3 4 5 6 6 5 4 5 6 7 9 10 10 10 10 10 11 12 11 11 9 7 5 3 3 3 3 4 5
6 6 6 6 4 2 2 3 5 5 5 4 3 3 2 3 4 5 6 6 5 5 5 7 9 10 10 10 11 12 13 13 11 11 11 10 8 7 6 5 5 5 6
6 6 6 6 5 3 3 3 4 4 4 3 3 3 3 3 3 5 6 6 6 6 6 6 6 8 9 10 12 13 13 12 11 11 11 12 12 11 10 9 8 7 6
6 6 6 5 4 2 1 2 2 2 2 3 3 3 4 4 4 4 4 4 5 5 6 5 4 6 8 10 11 12 12 12 12 12 12 13 14 14 13 12 10 8 7
6 5 4 2 1 1 1 2 2 2 3 3 4 4 4 4 4 3 3 3 3 4 5 5 4 6 8 10 11 11 12 12 12 12 13 14 15 15 14 14 11 9 7
4 4 3 1 1 2 3 3 3 4 4 4 4 5 5 4 3 3 3 3 3 3 4 4 4 5 7 9 10 11 12 12 11 12 14 15 15 15 15 13 11 9 8
4 4 3 3 3 4 5 4 4 4 4 4 4 4 5 5 4 3 3 3 3 3 3 3 2 2 3 5 8 10 11 11 11 12 13 15 15 15 15 12 9 9 9
5 5 5 5 4 4 4 4 4 4 4 3 3 3 4 4 4 4 3 3 2 2 2 2 1 1 2 3 5 7 8 8 8 9 12 15 16 17 16 12 9 9 10
5 5 6 6 4 3 3 4 3 3 3 3 3 2 3 3 3 3 3 2 2 2 2 1 2 3 4 2 2 3 5 4 4 5 8 13 17 19 17 13 10 10 11
4 4 6 6 5 4 4 4 3 2 2 2 2 1 1 2 1 2 3 3 2 2 2 2 2 4 5 4 2 2 3 3 2 2 4 8 14 18 17 13 10 10 10
3 3 5 7 6 4 3 2 2 1 2 2 1 0 0 1 1 2 3 3 3 3 3 2 1 2 3 4 4 3 4 3 2 1 1 4 8 11 12 10 8 7 7
3 3 5 7 6 5 4 3 2 2 2 2 1 0 0 1 2 3 4 4 4 3 2 1 0 0 1 4 6 6 5 4 2 1 0 1 3 5 5 5 5 4 4
4 4 6 6 6 5 6 6 5 4 3 2 1 1 1 2 3 4 5 6 5 5 3 2 1 1 2 4 6 7 6 4 2 0 0 0 1 1 1 2 2 2 2
6 6 6 6 5 6 7 8 7 7 6 5 4 4 4 4 5 5 6 6 6 6 5 4 3 2 3 4 5 6 6 4 2 1 0 0 0 0 0 1 1 1 1
7 7 6 6 6 7 8 8 8 9 9 9 9 7 7 7 7 6 6 6 6 6 6 5 4 3 4 5 5 6 6 5 4 3 2 1 0 0 0 0 0 0 0
8 8 8 9 9 9 9 10 10 9 9 10 10 9 9 9 8 7 6 6 6 6 5 4 3 3 3 4 5 6 7 6 6 5 5 3 2 0 0 0 0 0 0
12 12 13 13 12 11 11 12 12 12 11 10 10 10 10 10 9 8 7 6 6 5 4 3 3 3 4 5 5 6 6 6 6 6 6 6 4 2 0 0 0 0 0
19 19 20 19 16 14 15 15 16 16 15 12 11 12 11 11 9 8 6 4 3 3 3 3 3 4 5 6 6 5 5 6 6 6 6 6 5 3 1 1 0 0 0
22 24 26 25 22 19 18 16 16 17 17 15 14 13 13 12 9 6 3 2 1 1 1 3 3 4 5 6 5 4 5 6 6 6 6 6 6 4 3 3 1 0 0
22 24 27 28 25 21 17 14 13 15 16 15 14 14 13 12 8 5 3 2 0 0 1 3 3 4 4 4 4 4 4 5 5 5 6 6 6 6 6 5 3 1 0
20 23 26 28 26 21 16 11 10 12 14 13 11 11 12 11 8 6 6 5 4 2 3 3 3 4 4 3 2 3 3 4 4 4 4 4 4 5 6 5 4 2 1
19 21 24 25 25 22 17 11 8 10 12 11 10 10 10 10 7 6 8 9 8 6 4 3 2 3 2 1 1 1 3 3 3 3 3 3 3 4 4 4 3 3 2
19 19 20 22 23 21 17 11 6 8 11 12 11 9 8 9 7 5 8 11 11 9 5 2 1 1 1 0 0 1 2 3 3 3 3 3 3 3 3 3 3 3 3

GEFSMA_con_probscp_312.txt.gz
Probability
0 0 0 0 0 0 0 0 0 0 0 0 0 0 1 3 4 5 7 8 5 2 1 1 2 3 3 2 2 2 2 1 3 4 3 2 1 1 2 3 1 1 0
0 0 0 0 0 0 0 0 0 0 0 0 0 0 1 3 5 6 7 7 5 2 1 1 2 3 4 4 4 4 4 3 4 4 4 3 2 1 2 2 2 2 2
0 0 0 1 1 1 0 0 0 0 0 0 0 0 1 3 5 6 6 7 5 3 2 2 4 5 5 5 6 6 7 7 6 6 6 5 4 3 3 3 3 3 4
1 1 1 2 2 1 0 0 1 1 0 1 1 0 2 4 4 5 6 6 6 5 4 4 6 6 6 6 7 8 9 10 9 9 9 8 8 7 5 4 4 4 5
2 2 2 3 2 1 1 1 2 2 2 2 2 2 3 5 6 5 6 7 7 6 5 4 5 5 5 6 8 10 11 11 11 10 10 10 9 9 7 7 6 6 6
1 1 2 2 1 1 2 3 3 3 3 3 3 3 5 6 6 6 6 7 7 6 4 3 3 3 3 5 7 10 11 12 12 12 11 10 10 9 9 9 8 7 7
0 1 2 3 2 2 3 3 3 3 3 4 4 5 6 6 6 6 6 6 6 5 4 3 3 3 3 4 5 8 11 12 13 14 14 13 11 10 9 9 9 8 7
2 3 4 4 3 3 3 3 3 3 4 5 6 6 6 6 6 6 6 6 6 5 4 3 3 3 3 4 5 6 8 11 13 15 16 15 13 11 9 8 7 7 8
5 5 5 4 3 2 1 1 3 3 4 5 6 6 6 6 6 5 5 4 3 2 1 1 2 3 3 4 5 5 6 8 11 13 14 14 13 11 11 9 8 7 7
4 5 4 2 1 1 0 1 2 3 3 4 4 3 3 4 4 2 2 1 1 0 0 0 1 1 2 3 3 3 4 5 7 9 10 10 10 11 12 11 9 8 7
2 2 2 1 0 0 0 1 2 2 2 2 2 1 1 1 1 0 0 0 0 0 0 0 0 0 1 1 1 1 2 2 2 4 7 9 9 10 12 13 12 10 8
0 1 1 0 0 0 0 0 1 1 1 1 1 0 0 0 0 0 0 0 0 0 0 0 0 0 0 1 1 1 0 0 0 1 3 6 7 7 9 12 14 12 11
0 0 0 0 0 0 0 0 0 0 1 1 1 0 0 0 0 0 1 1 1 1 0 0 0 0 1 2 3 1 0 0 0 0 1 2 3 3 5 7 11 12 12
0 0 0 0 0 1 1 1 1 1 2 2 1 0 0 0 0 1 2 3 3 2 1 1 0 1 2 3 3 3 2 2 1 0 0 0 0 1 1 2 5 7 9
1 1 1 1 1 2 2 2 3 3 4 4 3 2 2 2 3 4 4 5 4 4 3 2 2 2 2 2 2 4 5 4 2 0 0 0 0 0 0 0 1 2 4
3 3 4 4 4 4 3 3 4 5 5 5 5 5 5 6 7 7 7 7 6 5 4 4 4 4 3 2 2 4 5 4 2 1 0 0 0 0 0 0 0 0 1
6 6 6 6 6 5 4 4 4 5 6 6 6 7 8 9 9 9 9 9 8 7 6 6 6 6 4 3 3 3 4 4 3 1 0 0 0 0 0 0 0 0 0
8 8 8 7 7 7 7 6 6 7 9 9 8 9 10 10 10 10 10 10 9 9 8 8 7 6 5 4 3 3 3 3 2 1 0 0 0 0 0 0 0 0 0
8 8 8 8 7 8 9 9 9 10 13 13 12 12 12 13 13 12 11 10 10 10 10 9 8 7 5 4 2 1 1 1 1 0 0 0 0 0 0 0 0 0 0
8 8 8 8 8 8 10 11 11 12 14 16 17 16 15 15 15 13 11 10 10 10 10 9 7 6 4 2 1 0 0 0 0 0 0 1 1 1 1 0 0 0 0
10 9 9 10 10 10 10 10 11 12 14 16 18 18 17 15 13 11 11 10 10 10 9 7 4 3 3 2 1 0 0 0 0 1 1 2 3 3 2 1 1 1 0
11 11 11 12 13 13 10 8 9 12 15 17 18 18 16 13 12 10 9 8 7 7 7 5 3 2 2 2 2 1 0 1 1 2 3 4 4 4 3 3 2 1 1
11 12 12 13 14 14 10 6 6 10 15 17 17 16 15 13 12 11 9 5 4 4 4 5 4 4 3 2 3 3 2 2 2 2 3 4 4 3 3 3 2 1 0
11 11 12 12 13 12 9 5 4 8 13 16 17 17 15 12 11 10 9 6 5 5 3 3 4 5 4 3 4 4 3 3 2 1 2 2 2 1 1 2 1 0 0
11 10 10 11 10 9 8 6 5 8 13 17 18 18 15 11 8 7 8 8 8 8 5 3 2 3 3 2 3 3 3 3 2 1 1 1 1 1 1 0 0 1 1
11 10 9 9 9 9 9 6 6 10 15 17 20 19 14 10 6 4 6 9 9 9 8 4 2 1 1 1 2 3 3 3 3 2 1 1 2 3 1 0 1 2 2